GPS BIII-2 (PRN 18)

Last updated on Wed Sep 23 2026 00:03:55 GMT+0000 (Coordinated Universal Time)

1 44506U 19056A 26265.44054127 -.00000063 00000+0 00000+0 0 9996 2 44506 55.5828 327.2737 0066110 200.3108 211.1108 2.00571718 52027
UTC large
Height (km)
Speed (km/s)
/
Latitude / Longitude
Inclination (degrees)
Orbital Period (minutes)
Azimuth
Elevation
Range (km)
Doppler Factor

Next 0 passes for location: London (51.5072 / 0.1276)

No passes found over London.
GPS BIII-2 (PRN 18)